Regional Weather Roundup
Issued by NWS

Home | Current Version | Previous Version | Graphics & Text | Print | Product List | Glossary On
Versions: 1 2 3 4 5 6 7 8 9 10 11 12 13 14 15 16 17 18 19 20 21 22 23 24 25 26 27 28 29 30 31 32 33 34 35 36 37 38 39 40 41 42 43 44 45 46 47 48 49 50
000
ASUS43 KDMX 290706
RWRIA

WEATHER ROUNDUP FOR IOWA
NATIONAL WEATHER SERVICE DES MOINES IA
200 AM CDT SAT JUL 29 2017

NOTE: "FAIR" INDICATES FEW OR NO CLOUDS BELOW 12,000 FEET WITH NO
SIGNIFICANT WEATHER AND/OR OBSTRUCTIONS TO VISIBILITY.

* - THESE STATIONS ARE NOT NWS STATIONS...THUS NOT UNDER NWS
QUALITY CONTROL.  THEY ALSO DO NOT REPORT WEATHER SUCH
AS PRECIPITATION OR FOG.

IAZ001>003-012>014-020>022-031>034-043>046-290800-
   NORTHWEST IOWA

CITY           SKY/WX    TMP DP  RH WIND       PRES   REMARKS
CARROLL *      MOCLDY    66  66 100 SE3       30.08S
CHEROKEE *     CLEAR     66  64  94 E5        30.09S
DENISON *      MOCLDY    66  64  94 NE6       30.09F
ORANGE CITY *  CLEAR     68  64  88 E5        30.09F
SHELDON *      CLEAR     63  61  94 E5        30.08F
SIOUX CITY     PTCLDY    64  63  96 CALM      30.06F
SPENCER        CLEAR     63  61  93 E5        30.11R
STORM LAKE *   CLEAR     66  63  88 E8        30.10S
$$

IAZ055>058-069>071-079>083-090>094-290800-
   SOUTHWEST IOWA

CITY           SKY/WX    TMP DP  RH WIND       PRES   REMARKS
ATLANTIC *     CLEAR     64  64 100 NE3       30.07S
AUDUBON *      PTCLDY    64  61  88 CALM      30.09S
CLARINDA *     CLEAR     68  63  83 CALM      30.07F
COUNCIL BLFS * CLOUDY    70  66  88 E8        30.06S
CRESTON *      CLOUDY    66  63  88 E7        30.09S
HARLAN  *      CLEAR     64  64 100 CALM      30.10F
LAMONI         CLOUDY    66  62  87 NE5       30.07S
RED OAK *      CLOUDY    68  64  88 E5        30.06S
SHENANDOAH *   PTCLDY    68  63  83 E6        30.05F
$$

IAZ047>049-059>061-072>074-084-290800-
   CENTRAL IOWA

CITY           SKY/WX    TMP DP  RH WIND       PRES   REMARKS
AMES           CLEAR     64  62  93 CALM      30.09S
ANKENY *       CLEAR     66  61  82 CALM      30.10S
BOONE *        CLEAR     63  61  94 CALM      30.09S
CHARITON *     CLEAR     66  59  77 E7        30.07F
DES MOINES     PTCLDY    71  60  68 E7        30.07S
GRINNELL*      CLEAR     62  57  84 NE3       30.10S
KNOXVILLE *    PTCLDY    66  59  77 CALM      30.07S
MARSHALLTOWN   CLEAR     60  58  92 CALM      30.09S
NEWTON *       PTCLDY    66  59  77 NE5       30.09S
PELLA *        CLEAR     65  58  78 CALM      30.09S
PERRY *          N/A     66  64  94 E5        30.09R
$$

IAZ004>006-015-016-023>025-035-036-290800-
   NORTH CENTRAL IOWA

CITY           SKY/WX    TMP DP  RH WIND       PRES   REMARKS
ALGONA *       CLEAR     66  61  82 SE6       30.11S
CLARION *      CLOUDY    63  63 100 E5        30.11R
ESTHERVILLE    CLEAR     61  60  97 S3        30.11R
FORT DODGE *   MOCLDY    63  59  88 E6        30.11R
MASON CITY     PTCLDY    57  55  93 CALM      30.13S
FOREST CITY *    N/A     61  59  94 CALM      30.12S
WEBSTER CITY * CLEAR     61  59  94 E5        30.09R
IOWA FALLS *     N/A     59  56  91 CALM      30.12S
$$

IAZ007>011-017>019-026>030-037>042-050>054-066-290800-
   NORTHEAST IOWA

CITY           SKY/WX    TMP DP  RH WIND       PRES   REMARKS
CEDAR RAPIDS   CLEAR     61  59  93 N6        30.08S
CHARLES CITY * PTCLDY    59  59 100 NE3       30.12S
DECORAH *      PTCLDY    59  57  94 CALM      30.11S
DUBUQUE        CLEAR     63  59  87 NE6       30.10S
MONTICELLO *   PTCLDY    59  59 100 CALM      30.09S
OELWEIN *      PTCLDY    59  57  94 NE6       30.11S
WATERLOO       CLEAR     58  55  90 CALM      30.10R
$$

IAZ064-065-067-068-078-290800-
   EAST CENTRAL IOWA

CITY           SKY/WX    TMP DP  RH WIND       PRES   REMARKS
DAVENPORT      CLEAR     61  58  90 NE6       30.09S
IOWA CITY      CLEAR     67  58  72 CALM      30.09R
MT. PLEASANT * CLEAR     60  59  95 NE3       30.08R
MUSCATINE *    CLEAR     63  59  88 CALM      30.08R
QUAD CITIES    CLEAR     62  58  86 CALM      30.07R
$$

IAZ062-063-075>077-085>089-095>099-290800-
   SOUTHEAST IOWA

CITY           SKY/WX    TMP DP  RH WIND       PRES   REMARKS
BURLINGTON     PTCLDY    66  60  81 NE7       30.06R
FAIRFIELD *    CLEAR     59  55  88 NE7       30.07R
FORT MADISON * PTCLDY    63  61  94 CALM      30.07R
KEOKUK *       PTCLDY    66  59  77 NE5       30.05S
OSKALOOSA *      N/A     58  56  92 NE5       30.08S
CENTERVILLE *    N/A     63  59  88 CALM      30.09S
OTTUMWA        CLEAR     60  57  89 NE3       30.08R
$$

ABBREVIATIONS USED IN REMARKS
   TC - TEMPERATURES IN CELSIUS
  WCI - WIND CHILL INDEX
   HX - HEAT INDEX
  VSB - VISIBILITY
$$





USA.gov is the U.S. government's official web portal to all federal, state and local government web resources and services.